User: anonymous   Login
Location: Unspecified
(0.0000°N, 0.0000°E)
Time: 00:35:14
(UTC+00:00)
Language:

UFO F6 - Orbit

View from above orbital plane
View from above orbital plane
View from above satellite
View from above satellite

Ground track
Ground track

The orbit data is extracted from the following two-line orbital elements,

1 23696U 95057A   23081.47835237  .00000013  00000-0  00000+0 0  9998
2 23696  10.5743  19.9636 0004979 108.5691 112.6957  0.98762762100145
Epoch (UTC): 22 March 2023 11:28:49
Eccentricity: 0.0004979
inclination: 10.5743°
perigee height: 36193 km
apogee height: 36236 km
right ascension of ascending node: 19.9636°
argument of perigee: 108.5691°
revolutions per day: 0.98762762
mean anomaly at epoch: 112.6957°
orbit number at epoch: 10014

The dashed part of the orbit path shows where the satellite is in the earth's shadow,  

DLR